Location: Newark
(44.2003°N, 3.2583°E)
Time: 02:51:27
(UTC+00:00)

FALCON 9 DEB - Pass Details

Date: 26 September 2020
Orbit: 158 x 180 km, 53.0° (Epoch: 28 September)

Event Time Altitude Azimuth Distance (km) Brightness Sun altitude
Exits shadow 04:06:27 15° 32° (NNE) 632 ? -17.3°
Drops below altitude 10° 04:07:24 10° 63° (ENE) 806 ? -17.1°
Sets 04:09:29 0° 91° (E) 1,558 ? -16.7°
